Location: DaVinci Observatory
(43.1080°N, 78.6453°W)
Time: 10:51:46
(UTC-04:00)

Vanguard 2 Rocket - Visible Passes

Search period start: 20 July 2018 00:00
Search period end: 30 July 2018 00:00
Orbit: 554 x 3327 km, 32.9° (Epoch: 19 July)

Date Brightness Start Highest point End Pass type
(mag) Time Alt. Az. Time Alt. Az. Time Alt. Az.
20 Jul 8.2 04:07:56 22° SSW 04:11:36 36° SSE 04:21:00 10° E visible
21 Jul 8.2 03:11:49 25° SSE 03:12:26 26° SSE 03:19:15 10° E visible
21 Jul 8.4 05:18:20 10° WSW 05:25:07 45° S 05:36:51 10° ESE visible
22 Jul 8.9 02:15:43 14° ESE 02:15:43 14° ESE 02:17:27 10° ESE visible
22 Jul 8.1 04:21:31 20° SW 04:25:33 39° SSE 04:35:03 10° ESE visible
23 Jul 7.8 03:25:26 30° S 03:26:16 31° SSE 03:33:32 10° ESE visible
24 Jul 8.6 02:29:23 18° SE 02:29:23 18° SE 02:32:15 10° ESE visible
24 Jul 8.0 04:35:11 17° SW 04:39:36 39° S 04:48:56 10° ESE visible
25 Jul 7.6 03:39:10 31° S 03:40:15 34° SSE 03:47:37 10° ESE visible
26 Jul 8.3 02:43:11 22° SE 02:43:11 22° SE 02:46:38 10° ESE visible
26 Jul 8.1 04:49:00 14° WSW 04:53:44 36° S 05:02:37 10° ESE visible
27 Jul 7.5 03:53:05 30° SSW 03:54:22 33° S 04:01:33 10° ESE visible
28 Jul 8.2 02:57:12 23° SE 02:57:12 23° SE 03:00:46 10° ESE visible
28 Jul 8.3 05:03:02 11° WSW 05:07:55 30° S 05:15:59 10° SE visible
29 Jul 7.6 04:07:14 27° SSW 04:08:31 29° S 04:15:13 10° SE visible
